CAPE
0 0 12 65 51 332 822 1680 2306 3108 3082 3491 3155 3082 2244 2696 2507 1644 1346 1338 1655 1843 1322 1822 2056 2234 1936 2064 2095 1746 1378 1866 1759 1711 2121 1874 2398 2366 2640 2645 2575 2578 2774 2508 2316 2506 2582 2628 2645 2806 2160 2715 2979 3114 3001 2773 2814 2898 2997 3118 3130 2952 2905 2890 2871 3091 3240 3292 3392 3295 3237 3164 3054 2873 2804 2738 2636 2585 2552 2536 2393 2252 2295 2271 2264
0 0 0 0 1 0 0 1382 1918 2320 2788 3292 2365 3371 3150 3042 2728 1789 1412 1339 1734 1768 1796 2304 2188 2369 2118 2000 1881 2051 1892 1247 1910 1717 1924 1980 2334 2379 2724 2637 2534 2677 2773 2727 2620 2616 2642 2488 2649 2691 2776 2528 2839 3158 3062 2800 2954 2948 2975 2942 3221 3090 2906 2759 2742 2781 2978 3099 3322 3361 3384 3296 3191 3094 2982 2888 2758 2707 2637 2627 2594 2551 2419 2323 2278
0 0 0 0 7 74 129 940 1318 1322 2080 2545 3195 3498 2745 3380 2246 1523 1384 922 1278 1537 2008 2126 2650 1888 2555 2514 2370 2176 1785 1344 1803 1837 1796 2188 2291 2336 2614 2846 2697 2726 2774 2734 2747 2788 2699 2615 2518 2653 2766 2456 2776 2670 3067 2976 2921 3040 3014 2956 2848 2788 2944 2892 2830 2828 2837 2803 2830 3164 3346 3170 2882 2776 2732 2704 2835 2808 2669 2700 2620 2433 2324 2343 2364
101 30 0 0 0 88 1086 1944 2104 1681 502 1068 1857 2522 2687 2072 1878 1431 1539 1430 1518 1244 1789 1238 2249 3194 2613 2308 2093 1761 1780 1623 1570 1834 1721 1586 2229 2454 2343 2610 2916 2906 2883 2929 2686 2778 2720 2726 2699 2605 2834 2717 2342 2265 2177 2688 2743 3070 3186 3114 2865 2999 2938 3007 2968 2947 2758 2600 2624 2648 2694 2802 2670 2734 2766 2816 2786 2773 2734 2750 2644 2552 2537 2432 2433
51 42 1686 303 1944 1965 1117 2035 2069 2164 1394 1292 2248 2129 1569 1132 1698 1646 1273 1434 1062 1306 1302 1922 1552 2052 2356 2456 2495 1982 1837 1699 1553 1990 1873 1642 1974 2453 2085 2567 2557 2846 3044 3081 2682 2659 2859 2669 2884 2833 2822 2889 2686 2461 2331 2334 2302 2290 2674 3050 2898 2850 2825 2863 3035 3104 2866 2725 2645 2558 2602 2622 2585 2575 2602 2656 2760 2833 2734 2740 2739 2672 2628 2585 2540
2677 2456 2314 1934 2024 2893 2007 2479 2889 1824 2020 1723 2650 2833 2106 2099 2044 2106 1807 1805 996 1048 1269 1126 1641 2065 2114 2622 2860 2508 2800 1964 1649 1710 2118 1527 1876 2201 2072 2399 2241 2596 2715 3062 3102 2932 2923 2890 2896 2767 2488 2531 2658 2660 2544 2465 2372 2290 2298 2544 2971 2879 2911 2884 2826 3060 3176 3050 2984 2806 2677 2621 2596 2486 2516 2668 2839 2953 2911 2870 2845 2838 2692 2655 2694
3006 3020 2792 2326 1862 2667 3302 2634 2159 2742 2142 2468 2865 3128 2833 2328 1992 1630 1527 1693 1488 835 730 1134 1116 1287 2066 3091 1989 2258 2950 2014 2134 1880 1844 1626 1571 2245 2140 2046 1856 2100 2384 2641 2893 3107 2920 2916 2919 2725 2484 2367 2464 2533 2554 2619 2614 2299 2071 2188 2278 2844 3030 2934 2914 2925 3154 3206 3260 3176 2877 2744 2646 2676 2704 2871 2938 2964 3017 2973 2984 2996 2928 2933 2931
3151 3264 3022 2546 1792 1814 4806 2803 2210 2719 2888 2792 3478 3468 2629 1976 2019 2203 1903 1420 1570 2134 1722 1734 685 656 1265 1608 2364 2488 2492 2523 2280 2044 1995 2376 2273 1576 2025 2076 1848 1773 1958 1969 2384 2680 2972 2836 2888 2860 2778 2626 2562 2626 2646 2600 2446 2143 2028 2082 2082 1989 2220 2579 2669 2782 3065 3130 3151 3225 3191 2992 2726 2782 2835 2754 2862 2897 2932 2918 3050 3158 3181 3158 3116
3224 2776 2663 2100 2125 1979 3424 2616 2088 1993 1998 3038 3064 3081 2732 1866 3363 2523 2404 2173 1539 1073 1640 1486 797 988 1322 1482 1823 2533 2163 1994 1756 2023 2206 2320 2440 2227 1762 1974 2099 2272 1806 1612 1678 2118 2825 3079 2982 2990 2912 2892 2835 2772 2734 2670 2516 2309 2087 1875 1884 1941 2140 2208 2100 2181 2724 3024 2929 2873 3032 3152 2980 3024 2946 2835 2838 2792 2878 2915 2995 3106 3172 3160 3146
2998 2946 2902 1893 2008 2106 1752 1818 1587 2720 2992 2714 2638 2142 1984 2063 2570 2992 2223 1674 1793 1529 1223 1627 1532 1233 970 1338 1750 1836 3041 3246 2781 3000 2876 2324 2652 2194 2229 1886 1698 1846 1823 1628 1530 1642 2118 2868 3198 3135 3103 3079 3024 2884 2778 2681 2494 2305 2060 1961 1919 1905 2042 1998 2001 1980 2251 2648 2864 2856 2786 2758 2730 2844 2898 2816 2850 2806 2778 2842 2936 3022 3080 3146 3091
3044 2944 3038 2436 2037 2164 2264 2280 2619 3035 2619 2526 2478 2470 2044 1624 1816 2362 2136 2138 1716 1609 1518 1659 1814 1139 1487 1247 1622 1456 1999 2304 1654 2232 2100 2220 2546 2424 2495 2411 2411 1866 1677 1716 1607 1585 1749 2325 2908 2966 2948 3257 3251 3178 3076 2963 2828 2479 2182 2126 2102 2031 1962 1956 2015 1957 2160 2326 2280 2546 2780 2826 2736 2658 2731 2778 2728 2630 2700 2846 2890 2937 2938 2955 3008
2870 2981 3259 2494 2192 2254 2195 2266 2338 2385 2443 1940 2018 1873 1788 1871 1570 1646 1673 2016 2104 1858 1760 2046 2149 2130 1818 1607 1760 1586 1312 1330 1860 2033 2647 2843 2489 2311 2237 2182 2210 2248 2132 1759 1594 1452 1595 2316 2811 2849 2595 2887 3276 3240 3258 3142 3038 2827 2667 2514 2312 2255 2214 2096 1946 1914 2220 2330 2170 2302 2532 2744 2610 2608 2585 2621 2724 2627 2673 2858 2859 2921 2925 2940 3000
3234 2877 2916 2530 2644 2472 2938 2410 2576 2479 2403 2295 1991 2219 1733 1808 2168 2220 1900 1801 2068 2249 1968 1790 1750 1610 1569 966 967 1126 1400 1876 2170 2169 2160 2698 3118 2389 2430 2968 2888 2170 2340 2362 2160 1804 1589 1989 2879 2743 2410 2069 2768 3354 3396 3340 3276 3125 2886 2647 2568 2481 2367 2316 2248 2127 2070 2291 2215 2370 2415 2568 2743 2621 2614 2674 2700 2706 2722 2788 2784 2839 2963 2939 2980
3016 2801 2559 2478 2620 2097 2469 2266 2568 2218 2413 2602 2308 2678 2230 1941 1688 2108 1860 1897 1743 1692 2203 1780 1922 1286 1467 1270 1514 1307 1642 1444 1975 2268 2453 2461 2501 2085 2960 2814 3017 3144 2688 3010 2870 2438 2100 1838 2549 2796 2613 2068 2049 2829 3184 3327 3359 3390 3190 2980 2727 2621 2576 2491 2460 2416 2350 2218 2350 2400 2427 2475 2612 2727 2703 2698 2685 2716 2764 2786 2798 2747 2931 2979 2978
2906 2840 2603 2393 2450 2326 2321 2806 2356 2419 2428 2336 2555 2926 2616 2223 2056 1706 1813 1823 1770 1338 2112 1814 1554 1301 1580 1151 1204 1208 2129 1640 1791 2244 2295 2574 3011 2435 2350 2702 2436 3118 2462 2526 2238 2678 2612 2078 1764 2177 2634 2522 2236 2553 2997 3067 2856 3108 3333 3186 2998 2892 2771 2686 2563 2551 2444 2378 2476 2464 2509 2517 2560 2631 2683 2770 2758 2766 2741 2745 2816 2881 2948 2992 2982
1930 2093 2652 2266 2314 2311 2198 2442 2411 2056 2079 2436 2050 1936 2354 2466 2053 2154 1880 1723 1533 1073 1563 1858 1489 1493 1180 1228 1077 731 808 1498 1916 2245 2440 2628 2686 2621 2425 2351 2633 1828 1811 1704 1494 1961 2470 2266 1927 1843 1974 2467 2568 2540 3135 3128 3181 3224 3328 3426 3328 2966 2944 2912 2860 2720 2600 2579 2609 2597 2619 2630 2620 2609 2648 2732 2753 2795 2775 2751 2768 2828 2873 2903 2930
2676 2209 1976 1829 2344 2879 2600 2556 2157 2386 2470 2236 1952 1714 1289 1630 1981 2282 1780 1960 1604 1906 2209 1678 1706 1068 1943 1247 1031 778 746 1392 1638 1849 2242 2619 2664 2514 2855 2976 2016 1409 1202 1355 2114 2698 1860 2155 2204 1812 2208 2408 2411 2490 2572 3202 3286 3229 2911 3306 3502 3124 2763 2912 2980 3080 2874 2750 2743 2698 2684 2696 2688 2658 2702 2764 2802 2772 2751 2764 2794 2808 2816 2816 2793
2782 2790 2158 2564 2659 2817 2669 2769 2564 2691 2764 1868 1908 1566 1460 1860 1972 1996 1811 1932 1757 1599 1854 2655 1786 2311 1592 1192 2218 1892 1774 1720 770 562 2182 2514 2690 2312 2992 2551 2100 1572 1376 1431 1741 2263 2362 2338 2591 2842 2830 2476 2588 2460 2406 2526 3162 3226 3090 2872 3522 3490 2938 2830 2961 3026 3085 2938 2926 2860 2792 2760 2744 2778 2810 2835 2826 2789 2783 2816 2843 2854 2843 2800 2753
2802 2410 2522 2932 2875 3448 3072 2466 2891 2959 2644 2662 2326 1650 1458 1864 1548 1549 1647 2342 2199 1846 1532 1460 2268 1575 1494 1149 1352 1360 1703 1521 1376 1041 1451 2457 2401 2662 2643 2918 2415 2364 1658 1806 1694 2012 2829 2644 2786 2354 2342 3074 2821 2253 2017 2280 2269 2773 3231 3298 3360 3474 3324 3058 3027 3057 3115 3173 3083 2979 2958 2882 2840 2842 2857 2858 2829 2802 2811 2830 2870 2894 2875 2832 2786
2781 2810 2908 2653 2861 3296 3242 3336 3166 2646 2584 2205 1920 1701 1389 1281 2153 2116 1920 2252 2208 1848 1744 1283 1803 1726 1187 1141 1355 1655 1322 1618 1912 1392 1306 1568 2104 2970 3276 2952 2466 2018 1829 1665 1836 1990 2582 2958 2719 2184 2043 2756 3128 2787 2700 2666 2286 2142 2434 2423 3218 3653 3585 3450 3323 3212 3244 3259 3252 3104 3054 3034 3011 2952 2898 2837 2802 2805 2802 2819 2848 2885 2860 2824 2459
2782 2632 2453 2763 2875 2896 2578 2770 2782 2426 2286 2037 1548 1330 1503 1912 2442 2425 2017 1826 2226 1610 2091 2201 1680 1249 1477 1200 866 980 1179 1543 1804 1690 1420 1302 1563 1948 2582 2578 2014 1820 1989 2290 2611 2759 2942 2735 3054 2896 2448 3118 2895 2564 2078 2206 2165 2066 2604 2309 2276 3369 3822 3931 3774 3564 3438 3426 3398 3199 3150 3137 3100 3042 2941 2848 2814 2794 2777 2774 2810 2873 2779 2776 2712
1995 1560 1334 1627 2050 2335 2328 1906 1830 1162 1345 789 975 1400 1624 1975 2134 2006 1812 1792 2105 1810 1915 2052 2007 1668 1370 1457 1924 1760 1414 1458 1667 1627 1543 1555 1535 1706 1948 2276 2262 2295 2139 2285 2510 2313 2076 2622 2962 3408 3667 3213 2792 2798 2704 2181 2038 2017 2180 2634 2987 3401 3765 3933 4182 3989 3789 3672 3627 3459 3214 3128 3122 3109 3030 2956 2898 2860 2843 2848 2857 2850 2816 2790 2787
482 1311 1284 467 864 1624 649 540 706 698 861 698 897 725 672 643 744 1353 1854 2081 2045 1985 1801 2153 2235 1918 1288 1280 1550 948 1522 1737 1176 1484 1207 1344 1499 1764 1632 1701 2010 2158 2883 2630 2635 2464 2415 2791 2996 3440 3948 3456 3137 2857 2357 2182 2292 2125 2248 2837 2817 2758 3408 3921 4378 4351 4172 4010 3896 3766 3390 3204 3134 3126 3131 3084 3016 2958 2896 2859 2880 2890 2870 2826 2796
388 226 299 129 460 582 405 518 1134 1279 1324 960 969 889 1046 740 970 1376 1162 1923 2226 2524 2351 2234 1694 1764 1538 1356 1326 1342 1969 1245 1211 1301 1628 1449 2016 1830 1798 2446 2239 1818 1607 2587 2879 3016 2922 2854 3048 3323 3747 3290 3108 2862 2667 2382 2059 2363 2485 2704 3051 3098 3358 3675 3919 4708 4528 4327 4202 4088 3801 3388 3251 3201 3196 3168 3119 3076 3016 2988 3027 2987 2937 2884 2855
422 179 24 375 1162 1720 579 834 958 975 1579 1352 1484 1637 1346 908 1099 689 874 1369 1257 1422 1976 1853 2090 2172 1630 1130 1126 1210 1509 1706 1337 1212 1585 2338 2322 1907 1728 1667 2118 2226 2065 1650 1968 2578 2569 2704 2884 3080 3217 2668 2444 2432 2401 1810 1535 1910 2579 2299 2927 3401 3398 3562 3657 3918 4355 4554 4384 4302 4116 3843 3517 3481 3473 3346 3297 3222 3131 3118 3100 3032 2977 2906 2890
57 613 342 209 94 89 401 380 1230 1269 1351 1177 896 980 1139 1736 932 898 668 1436 1490 1409 1677 1463 1704 1496 1540 1312 1112 1072 1099 1590 1118 1061 1162 1387 1973 1854 1943 1723 1226 1154 1371 1928 1795 1909 2760 2917 3064 3072 3112 2898 2547 2224 2246 2083 1950 2338 2697 2616 2519 2764 2878 3138 3462 3644 3830 4746 4561 4417 4247 4210 4109 3886 3690 3660 3531 3456 3332 3192 3137 3147 3048 2950 2944
0 76 299 116 118 445 416 360 425 562 868 1114 408 526 1186 970 953 984 1287 1240 1322 1428 1243 1049 1317 1138 971 1126 1186 994 960 896 1322 1565 1406 1958 1502 1528 1504 1163 1532 1441 1178 1250 1588 1460 1411 2900 2781 2972 3145 3294 3170 3108 3021 2926 2627 2762 3338 3112 2564 2657 2510 2702 2974 3282 3558 3901 4719 4421 4430 4406 4199 4078 3962 3762 3592 3575 3241 3092 3148 3044 3152 3127 3078
22 0 0 77 151 70 72 121 575 266 388 649 572 376 691 599 627 540 505 277 638 950 933 1137 1075 669 645 709 807 517 688 682 765 1234 2205 2039 1727 1404 1694 1452 1610 1344 1197 1482 1346 1354 1492 1839 2805 2580 3303 3362 3154 3230 3832 3861 3266 3228 3709 3173 3204 3176 2903 2818 2535 2609 3080 3618 3973 4524 4471 4492 4358 4168 4088 3874 3689 3634 3393 3151 3207 3147 3080 3180 3144
0 0 12 14 50 113 80 58 310 249 169 254 192 346 661 457 74 665 542 221 624 761 639 659 632 500 627 426 416 478 654 822 1070 1205 1883 2376 1994 1751 1750 1681 1681 1241 1401 1495 1630 1344 1266 1223 2315 2996 2386 2922 3130 3052 3322 3490 3137 2956 2731 2986 3051 3326 3260 3116 2871 2464 2370 2582 3082 3538 3918 3910 3920 4031 4067 3923 3776 3666 3421 3322 3297 3260 3238 3216 3313
0 35 60 6 182 285 96 84 27 150 284 226 208 349 910 759 412 1120 364 840 728 626 431 370 426 360 269 263 457 394 508 546 654 951 1357 2424 2389 2242 2092 1706 1743 1426 1591 1338 1310 1380 1462 1466 3011 3506 2824 3071 3516 3767 3407 3049 2765 3233 2897 2872 3034 2879 2831 3137 3099 2907 2754 2679 2821 2898 3024 3342 3548 3713 3800 3900 3842 3641 3530 3325 3236 3220 3274 3372 3292
149 142 136 20 13 14 294 190 215 290 146 191 445 545 509 377 412 230 269 764 1179 1026 789 629 960 820 886 719 643 476 462 621 861 1118 1206 1440 1478 1752 1891 1800 1391 1278 1760 1672 1440 1577 1236 1514 2000 2388 2544 2559 2962 2755 2920 2966 2814 2879 2508 2109 2486 2496 2435 2888 2940 2828 2639 2648 2780 2948 2930 2842 3286 3675 3771 3849 3812 3682 3220 3342 3320 3396 3440 3452 3444
9 18 1 85 208 280 222 91 38 34 68 70 306 419 357 477 290 136 153 428 440 624 487 358 482 629 600 438 462 515 488 742 655 504 468 552 972 1578 1634 1563 1644 1697 1908 2099 1864 1532 1594 1644 1428 2006 2367 2926 2888 2592 2645 2828 2754 2666 2810 2532 2666 2388 2453 2352 2794 2749 2505 2374 2497 2795 2874 2796 2806 3416 3784 3819 3817 3690 3467 3374 3422 3454 3436 3489 3487
0 194 73 166 358 522 162 83 105 153 342 371 394 444 506 734 871 716 486 626 788 364 367 409 222 274 384 608 570 469 427 313 308 238 124 107 173 833 1577 1614 1689 1690 1772 2169 2126 1894 1798 1749 1502 1426 1487 1594 2504 2631 2722 2940 2941 2839 2572 2656 2792 2700 2465 2423 2440 2115 2161 2154 2421 2711 2827 2774 2734 2788 3059 3573 3686 3626 3572 3393 3361 3395 3468 3503 3540
313 92 75 0 44 65 44 285 306 251 362 751 488 330 298 432 508 148 122 302 542 642 690 664 617 488 451 610 638 306 217 128 7 4 6 21 55 68 101 524 1327 1732 1936 1746 1724 1764 1652 1587 1628 1752 1286 1372 1287 2621 2536 2477 2644 2656 2841 2672 2503 2407 2402 2359 2306 2409 2146 2138 2376 2431 2476 2556 2707 2776 2777 2690 3160 3535 3565 3377 3209 3190 3159 3140 3143
128 102 47 177 328 300 218 265 258 177 567 402 302 315 428 435 343 119 202 359 321 211 147 270 274 234 397 486 318 337 262 146 150 167 174 86 0 0 0 0 23 860 1616 1753 1944 1923 1645 1624 1884 1398 1530 1831 1523 1878 2469 2555 2681 3100 2951 2356 2151 2320 2552 2418 2562 2757 2514 2171 1956 1924 1992 2480 2716 2685 2699 2674 2548 2512 2916 2993 2968 2890 2862 2924 3007
24 43 200 292 518 673 502 367 192 515 265 358 375 332 349 350 393 425 356 427 238 250 285 314 284 508 738 689 435 200 342 458 508 440 260 280 281 223 169 162 145 94 168 354 2119 1921 1937 1611 1476 1607 1576 1533 2090 2904 2766 3141 3523 3115 2701 2241 1966 2108 2254 2456 2598 2455 2411 2452 2438 2281 2421 2433 2408 2522 2699 2697 2629 2490 2268 2349 2603 2721 2748 2751 2816
602 487 484 591 546 420 92 9 193 148 100 256 266 211 344 262 329 376 422 427 255 245 283 386 448 547 608 593 424 542 554 454 360 248 203 187 206 321 279 158 226 168 133 327 1299 1941 1776 1666 1829 2130 2308 2004 1855 2919 3037 3030 2790 2528 2532 2134 2060 2226 2428 2396 2232 2649 2411 2495 2449 2320 2152 1957 1945 2286 2613 2633 2550 2518 2474 2299 2108 2226 2435 2520 2567
662 524 590 554 379 506 238 390 353 353 478 393 334 386 305 329 287 341 386 500 385 325 373 492 512 562 576 508 511 633 580 523 401 477 555 552 579 418 383 464 536 548 569 506 629 1301 2544 2574 2334 2081 1986 1800 1838 2078 2878 3011 2637 2440 2209 2346 2454 2474 2540 2544 2562 3040 3222 2796 2452 2113 1910 1922 2005 2340 2386 2471 2344 2354 2432 2480 2358 2069 1898 2088 2287
361 390 567 603 543 350 566 551 503 510 586 479 538 472 508 497 520 501 350 426 500 433 342 343 302 393 495 575 605 650 688 736 610 745 754 800 756 641 720 720 678 898 981 1013 1001 816 897 983 1255 1951 1978 1965 2090 2165 2601 2718 2738 2422 2138 2032 2022 2258 2855 2650 2674 2731 2651 2510 2500 2322 2577 2480 2472 2495 2584 2596 2370 1874 2007 2438 2617 2442 2061 1741 1740
555 455 327 257 248 298 357 458 564 604 602 545 446 398 436 468 470 576 690 571 414 217 92 49 26 74 211 379 565 691 823 924 1055 1062 971 899 1074 966 1038 1280 1235 1130 1218 1174 1305 1364 1380 1249 1128 1166 1376 1701 1938 2020 2208 2692 2500 2275 2340 2185 2056 2062 2044 2757 3198 2835 2086 1956 2938 3771 3039 2500 2448 2508 2443 2372 2330 2224 1963 2150 2665 2655 2331 1917 1633
582 619 569 622 599 451 369 493 548 534 402 372 368 291 278 342 374 323 314 299 229 167 58 18 40 134 238 352 320 353 720 554 867 1123 900 1009 947 939 1091 1208 1352 1174 1200 1226 1394 1624 1581 1349 1213 1296 1268 1186 1346 1562 1757 2184 2103 1550 1513 2086 2240 2091 2371 2424 2613 2186 1606 1571 1698 2124 2810 3258 2831 2720 3388 3193 2778 2732 2694 2442 2509 2607 2488 2203 1819
768 778 804 777 743 636 699 744 653 533 470 458 430 584 299 264 341 341 303 313 280 205 119 32 10 18 57 170 412 322 800 951 970 1072 1225 1407 1531 1415 1226 1247 1342 1320 1278 1260 1186 1228 1340 1414 1408 1263 1277 1328 1270 1369 1528 1440 1582 2186 2136 1994 1646 2376 1596 1472 1380 1654 2415 2185 1814 1846 2237 2914 2864 2890 3436 3281 3567 3236 3080 2939 2746 2525 2385 2149 1850
829 852 795 758 652 706 714 648 638 534 467 367 292 257 300 404 380 507 458 338 238 171 75 7 0 0 0 11 131 193 483 624 866 966 1317 1831 1962 1815 1768 1686 1655 1479 1351 1291 1222 1179 1010 760 829 1141 1036 1160 1364 1363 1301 1378 1470 1624 1857 2118 1865 1807 1432 1391 1384 1714 2748 1752 1721 2084 2182 2581 2971 3497 3463 3258 3221 3530 3562 3331 3260 3252 2960 2496 2050
781 603 559 597 569 584 434 561 604 492 316 205 114 10 24 146 276 304 156 46 34 56 20 3 1 0 0 4 22 92 177 423 620 667 657 578 756 920 1142 1658 1860 1884 1900 1713 1492 1354 1262 1108 966 926 862 916 1120 1382 1485 1495 1534 1487 2073 1417 970 696 851 1240 1419 1362 2770 2334 2194 2150 2037 1926 2277 2613 3270 3190 2755 2362 2394 3154 3530 3508 3595 3392 2889
612 749 705 610 499 377 288 393 387 218 157 123 11 10 11 38 89 82 98 96 80 50 27 18 13 12 16 38 45 64 96 143 463 596 729 807 672 665 599 505 650 1765 1759 1650 1689 1831 1567 1279 1222 1092 997 1019 1085 1258 1443 1538 1599 1611 1551 1873 1558 1120 1057 1070 1575 1218 1753 2187 1468 1335 1678 2264 2426 2677 2796 2553 2264 2107 2088 2131 2436 2938 3496 3616 3234
685 622 465 497 357 450 341 347 406 282 216 126 22 15 20 30 36 299 75 112 107 58 87 92 52 42 62 104 138 175 210 274 325 390 406 548 689 744 770 766 982 932 776 1248 1504 1414 1514 1577 1387 1207 1199 1252 1184 1318 1561 1520 1476 1613 1688 1389 1326 1482 1426 1444 1693 1894 2424 1390 1404 1496 1670 1979 2306 2373 2453 2500 2408 2331 2303 2542 2769 2971 3161 3142 2873
616 516 525 353 252 244 219 256 168 66 28 9 3 4 6 13 19 452 81 90 85 100 117 104 98 91 142 203 280 338 387 474 546 602 662 676 690 682 650 627 677 795 873 937 1003 1204 1520 1922 2001 1800 1531 1270 1189 1231 1551 1602 1599 1666 2017 1913 1896 1862 1519 1426 1276 1292 1045 1434 1161 1301 1318 1386 1766 2126 2226 2226 2158 2253 2574 2742 2866 2860 2711 2418 2218
626 444 257 114 74 66 55 24 33 38 64 10 2 1 0 2 11 220 190 117 92 75 69 92 117 188 301 449 518 513 477 492 574 664 623 774 757 757 779 716 638 662 728 709 625 636 1261 1182 1189 1380 1534 1594 1544 1697 1892 1815 1631 1735 1871 1670 1294 1207 1164 996 1300 1591 1585 1606 1711 1306 1303 1420 1641 1503 1561 1955 2169 2222 2468 2714 2797 2744 2590 2368 2094
356 129 61 28 22 76 177 155 44 42 13 14 0 0 0 1 58 132 151 136 143 139 142 159 205 284 358 394 416 424 425 415 556 336 301 690 666 588 512 532 523 503 564 712 698 525 418 379 379 518 922 1378 1501 1438 1342 1148 917 1103 1532 1413 1170 1118 956 791 814 1144 1315 1298 1430 1872 1699 1728 1884 1881 1860 1799 1951 2218 2608 2899 3042 2993 2890 2746 2530
166 127 72 38 96 76 11 5 3 14 5 3 0 0 9 15 140 106 148 186 147 156 157 220 271 324 375 507 394 470 548 518 279 285 248 418 476 557 484 424 412 460 502 614 640 695 516 434 456 575 672 723 767 844 922 944 896 883 1090 1147 1208 1180 1122 988 857 875 1142 1113 1094 1510 1704 1626 1658 1769 1812 1803 1922 2201 2297 2587 2844 2926 2825 2670 2583
40 38 6 0 0 16 57 133 63 94 28 26 13 17 17 13 207 174 257 289 187 149 141 156 212 271 329 349 382 522 422 70 24 22 24 0 62 43 139 206 282 325 436 538 559 615 694 642 633 695 1368 1394 1450 1454 1627 1379 1188 1079 958 1052 1344 1264 976 944 920 912 872 860 942 1309 1174 1150 1476 1842 1936 1850 1706 1880 2489 2653 2589 2644 2994 3072 3141
Wind_Speed
nan nan nan nan nan 8 12 13 14 13 12 9 8 7 5 8 10 9 6 5 4 7 7 7 7 6 6 8 7 6 6 6 6 7 7 7 9 14 21 21 18 16 13 12 12 11 11 10 10 11 10 9 11 12 14 16 16 17 18 19 20 22 22 22 21 22 23 23 22 22 21 20 20 19 18 18 17 16 16 15 14 13 12 11 11
nan nan nan nan nan nan nan 12 11 11 10 11 11 7 9 10 10 9 6 3 5 6 6 6 7 5 5 6 7 8 7 7 6 7 6 6 8 9 20 17 17 15 12 11 10 10 9 10 9 9 11 11 12 12 14 15 16 17 18 20 20 21 22 23 22 23 24 23 23 23 23 22 20 19 19 18 18 17 17 15 14 13 13 12 11
nan nan nan nan nan nan 7 12 9 8 7 10 10 9 9 11 12 12 14 8 5 1 3 6 6 6 5 5 6 6 8 8 7 6 6 5 6 7 11 18 16 16 13 12 10 9 8 8 9 9 9 10 12 13 14 15 16 18 18 19 21 22 21 22 22 23 24 24 23 23 22 22 21 20 20 19 18 18 16 15 15 14 13 12 12
4 nan nan nan nan nan 13 14 12 8 7 8 10 10 11 10 10 13 12 12 10 3 4 6 5 5 6 6 5 5 7 8 7 6 6 4 4 6 6 8 15 15 14 12 10 9 8 8 9 9 9 10 12 13 14 15 17 17 18 19 20 20 21 22 22 22 24 24 24 23 22 21 21 19 18 18 18 17 16 15 15 14 14 13 13
nan nan 7 7 10 12 12 13 12 9 10 8 13 10 9 10 10 13 12 13 13 12 8 3 2 2 4 5 4 4 5 7 7 7 6 7 4 4 6 6 6 12 14 12 10 9 9 8 8 9 10 11 12 12 13 15 17 18 19 18 19 20 21 22 22 22 23 23 23 23 22 21 21 19 18 17 17 16 16 15 15 14 14 14 14
8 10 10 9 10 14 15 13 13 13 8 9 12 9 9 9 11 15 13 11 11 8 9 8 2 3 1 3 4 2 1 5 6 6 7 6 6 4 5 5 5 4 5 12 11 10 9 9 9 10 11 11 12 12 13 14 16 17 17 18 19 19 20 22 22 21 21 21 21 21 21 20 19 18 17 17 16 15 15 15 14 14 14 14 14
9 10 10 11 10 13 15 15 14 11 10 12 11 10 9 10 13 15 11 9 12 12 7 8 10 6 1 1 4 4 0 2 3 5 5 5 6 6 5 6 5 5 3 1 8 11 10 10 10 10 11 11 11 12 13 14 16 17 17 17 18 19 18 19 21 20 19 20 20 21 21 20 18 17 16 16 15 14 13 13 13 13 13 13 12
10 10 9 10 10 11 14 16 13 11 11 13 13 11 11 10 13 14 12 10 10 11 10 11 11 8 4 1 3 5 3 3 1 3 4 4 5 6 5 5 5 4 5 3 1 3 12 10 11 11 10 10 10 10 12 13 15 17 16 16 17 18 19 19 20 20 18 18 18 19 19 19 18 16 16 14 14 13 12 12 13 13 12 12 12
11 10 10 9 11 11 12 11 11 8 9 13 13 12 10 9 14 13 13 13 11 7 10 12 10 9 6 3 1 3 3 4 3 2 4 4 3 4 5 5 5 5 6 5 3 2 7 12 10 10 10 9 8 8 10 12 14 14 15 15 16 16 16 17 18 18 17 17 17 17 17 17 17 16 16 15 13 13 12 12 12 12 12 13 13
11 11 8 5 7 7 7 9 10 12 13 11 12 9 8 8 10 13 14 14 12 9 10 10 11 12 10 8 2 1 2 4 5 6 6 3 3 3 4 4 6 5 5 6 5 4 3 5 10 9 9 8 8 8 9 10 11 12 13 14 15 15 16 17 17 17 16 14 15 16 16 16 16 15 15 14 13 13 13 13 12 12 12 12 14
9 6 4 2 3 5 7 8 8 10 11 10 9 8 8 8 7 11 15 15 13 10 9 9 11 10 12 11 10 4 5 5 4 4 4 2 3 4 4 4 6 5 6 6 5 6 5 6 3 3 2 8 6 7 7 8 9 10 12 13 14 15 15 15 16 16 15 14 15 15 15 15 16 16 15 15 14 14 14 13 13 13 12 12 13
2 2 3 3 4 4 6 6 7 7 5 3 6 8 6 8 7 8 13 13 12 10 10 10 11 10 9 9 10 9 9 5 3 3 4 6 5 5 4 5 4 6 6 6 7 6 7 8 7 5 6 1 7 5 6 7 7 8 10 11 12 13 14 14 15 15 14 14 15 14 13 13 15 16 16 15 14 14 14 13 13 13 13 13 13
4 4 5 6 6 6 7 7 11 10 7 5 3 5 4 5 5 8 6 8 9 10 9 10 11 9 8 8 10 7 5 6 6 5 4 6 8 8 8 7 6 5 7 8 8 8 8 9 10 9 8 9 4 5 6 5 6 6 8 9 10 11 12 13 13 14 14 13 13 12 12 12 13 14 14 13 13 13 13 13 13 14 13 12 12
7 7 7 9 9 9 12 12 12 12 13 11 7 5 3 1 0 3 7 6 6 7 11 11 10 9 9 8 10 10 7 5 4 6 6 8 13 9 8 8 9 7 7 8 9 9 8 10 12 11 11 10 10 10 5 2 1 6 5 7 8 9 10 11 12 12 11 11 11 11 11 11 11 12 12 13 13 13 13 13 13 13 12 12 11
9 10 10 11 12 11 11 10 10 12 14 14 12 11 8 7 5 3 1 4 4 5 11 8 10 11 12 11 9 9 11 8 6 4 5 7 12 11 8 7 6 10 9 8 10 11 9 8 9 11 12 11 11 12 10 8 6 3 5 5 6 7 10 10 10 10 10 10 9 9 10 10 11 11 11 12 12 12 12 12 11 11 11 11 10
11 11 10 11 12 12 12 10 12 11 15 14 13 13 10 10 8 6 6 5 5 5 6 11 10 13 11 9 11 11 8 7 7 7 7 5 9 11 12 7 8 12 13 9 8 9 9 9 7 8 11 12 11 11 12 12 8 6 6 7 7 7 7 9 10 9 10 10 9 9 9 10 10 11 11 11 11 11 11 11 10 10 10 9 9
9 11 8 10 12 9 11 12 12 15 15 15 15 15 10 5 8 7 8 8 7 7 9 10 10 11 9 10 10 10 8 10 10 9 10 6 6 9 10 12 11 11 11 8 7 9 10 8 9 10 9 10 10 10 12 13 12 11 7 6 7 8 7 7 10 10 11 10 10 9 9 10 10 11 11 10 10 10 10 10 10 9 9 9 8
8 5 8 10 10 13 13 12 14 14 15 14 13 12 10 8 9 10 10 11 10 9 10 12 11 13 13 9 7 8 10 10 13 8 11 7 7 7 8 9 12 12 13 10 7 10 13 10 10 12 12 11 11 11 11 13 14 14 13 9 9 9 9 10 11 12 12 12 10 9 9 10 10 10 10 9 9 9 9 9 10 9 9 8 8
7 8 9 9 8 9 9 12 12 12 12 12 12 11 10 10 11 11 11 9 11 11 11 12 12 13 14 14 12 9 8 11 9 8 8 11 9 9 8 9 11 13 13 11 9 10 12 12 11 12 13 14 15 14 12 10 10 13 15 14 14 12 12 12 13 13 13 12 11 10 9 9 9 9 9 9 9 9 9 9 9 9 8 8 7
8 7 9 7 7 7 10 9 8 9 8 10 10 9 9 9 11 11 11 12 13 13 12 11 11 11 11 12 13 12 11 11 11 10 7 9 11 11 11 11 11 11 12 13 12 11 11 14 14 14 15 13 14 15 14 14 13 12 14 13 13 15 14 13 13 14 13 12 11 9 9 8 8 8 8 8 8 8 8 8 8 8 8 7 7
8 9 7 7 6 7 6 7 8 8 8 9 8 7 7 7 11 11 11 13 14 13 13 13 13 11 11 13 14 14 14 10 12 11 10 9 8 11 12 14 12 11 12 12 12 13 13 13 15 17 17 15 14 15 15 14 15 13 13 14 14 14 16 15 14 14 13 12 11 10 9 8 8 8 8 8 8 7 7 7 7 7 7 7 7
7 6 2 5 6 7 8 9 9 8 7 6 8 9 9 8 9 12 14 14 12 13 14 13 11 15 15 11 11 11 12 13 13 12 10 10 9 9 12 14 13 13 14 13 12 13 12 13 13 15 18 19 18 17 17 16 15 15 13 8 9 14 18 18 16 14 13 12 11 11 10 9 9 9 9 8 8 7 7 6 6 6 6 6 6
5 3 6 4 6 8 5 2 1 3 5 4 4 3 4 5 7 9 11 12 11 11 12 14 14 13 13 15 14 13 14 13 12 13 14 11 11 10 10 11 12 12 15 14 15 15 15 15 14 16 17 17 19 19 19 18 16 13 8 8 8 9 13 18 19 17 15 14 13 12 11 10 10 10 9 8 7 7 7 6 6 6 6 6 6
3 3 3 4 5 6 5 6 7 5 5 5 5 5 6 6 8 10 12 14 15 14 14 13 12 14 13 14 13 12 14 16 14 13 14 11 9 9 10 11 11 11 13 14 14 16 17 17 16 16 17 17 17 18 20 20 18 11 10 7 5 6 10 15 18 19 18 16 15 14 13 11 11 10 10 9 8 7 7 6 7 7 7 6 6
5 4 nan 8 6 8 8 11 11 10 9 9 10 10 10 9 10 9 11 13 15 15 17 16 16 16 15 15 16 18 18 18 16 10 9 12 13 10 9 10 10 12 13 12 13 15 16 17 17 17 18 18 17 18 19 19 19 16 11 11 6 6 10 13 15 17 18 17 16 15 14 12 11 11 11 11 10 9 7 7 7 7 7 6 5
nan 9 10 7 nan nan 7 7 10 11 11 11 11 12 13 13 12 12 12 15 16 15 15 16 16 15 16 16 15 16 17 20 21 19 16 14 14 13 11 11 9 8 12 14 14 14 15 17 19 18 19 20 19 18 19 19 19 15 12 13 10 7 9 13 14 16 17 19 18 16 15 14 13 13 12 12 12 11 9 7 6 6 6 5 5
nan nan 11 9 8 9 10 10 10 11 12 13 11 13 15 14 15 14 15 15 17 19 19 17 17 17 17 18 18 18 18 16 19 20 18 16 15 13 13 10 10 10 10 11 12 13 14 19 18 19 18 20 21 22 20 20 18 17 17 17 15 12 15 16 14 13 15 17 19 17 15 15 14 13 13 12 12 11 9 7 6 5 4 4 4
nan nan nan nan 13 nan nan 11 14 13 12 12 13 13 15 15 16 18 17 19 19 19 20 21 21 20 19 19 19 18 19 18 18 18 22 21 19 17 16 14 15 11 12 11 13 12 13 14 19 19 20 19 20 21 21 20 21 20 19 19 19 18 17 18 16 13 12 14 15 16 15 14 14 13 12 12 12 12 11 9 6 4 3 3 4
nan nan nan nan nan 15 nan nan 15 16 14 14 13 15 16 17 nan 19 18 18 19 20 21 20 20 20 21 19 21 21 22 22 21 22 23 24 23 21 20 18 21 17 15 14 14 13 15 13 17 19 17 19 19 19 19 21 21 21 21 21 21 21 19 20 19 16 14 12 13 14 14 12 11 11 11 11 11 11 10 9 8 4 1 2 3
nan nan nan nan 18 19 nan nan nan 16 16 16 17 18 20 20 20 21 21 23 23 24 24 23 22 22 21 21 21 22 22 22 24 24 24 25 25 24 22 22 25 21 18 16 14 16 15 17 21 19 18 18 20 20 19 19 18 22 22 21 22 21 18 20 20 19 16 14 14 14 14 13 12 11 11 11 11 10 10 8 6 4 1 1 2
19 21 20 nan nan nan 20 19 20 20 21 23 24 24 24 24 23 23 23 25 25 25 25 24 25 26 26 24 24 24 24 24 25 25 26 27 26 25 25 26 26 24 20 19 16 19 19 17 20 22 20 19 19 19 19 18 18 20 21 22 23 21 20 23 22 20 18 17 16 16 14 14 13 13 13 13 13 12 8 7 6 4 3 2 2
nan nan nan nan 21 22 21 nan nan nan nan nan 26 26 26 26 26 26 25 26 24 25 26 26 26 27 27 25 25 25 25 26 26 26 27 28 29 28 27 27 26 26 26 22 20 17 21 19 17 21 22 20 20 19 18 19 19 19 20 21 22 23 23 23 21 19 18 18 17 17 16 15 14 14 15 15 14 13 12 9 7 5 3 3 3
nan 25 nan 21 21 24 26 nan 30 29 29 28 28 28 29 29 29 29 27 27 27 26 27 25 25 26 27 27 27 27 27 25 27 26 25 25 27 32 33 31 29 29 27 27 23 20 22 22 20 19 21 22 22 19 19 20 21 20 20 20 21 23 24 24 23 20 18 17 18 18 18 17 15 14 14 15 15 14 14 12 10 8 6 6 6
25 nan nan nan nan nan nan 32 30 30 29 30 31 32 30 30 29 28 27 27 28 28 28 27 27 27 27 27 27 26 27 26 nan nan nan nan nan nan 29 34 35 32 32 30 26 24 22 26 25 23 22 23 21 24 20 20 21 21 19 20 22 22 22 24 25 24 23 21 20 19 19 18 17 16 15 15 15 15 14 14 13 11 9 9 9
24 25 nan 27 29 31 32 30 28 28 32 33 33 32 31 30 29 27 27 27 27 25 25 26 26 28 27 28 27 27 27 27 28 28 27 nan nan nan nan nan nan 35 36 34 31 27 25 25 27 24 25 25 25 25 24 22 21 22 21 20 20 22 23 23 25 27 25 25 21 20 19 19 19 18 17 16 16 15 14 14 14 14 12 11 11
nan nan 29 29 29 29 29 27 29 34 33 32 33 32 31 30 29 28 27 27 25 25 25 25 25 27 28 28 27 27 30 30 30 30 31 31 32 34 32 33 34 nan 34 37 37 32 30 27 28 27 28 27 27 29 30 25 23 23 22 21 20 18 19 23 24 24 24 24 25 22 21 20 19 19 19 18 18 17 15 14 14 15 15 14 12
28 28 30 29 28 29 nan nan 30 31 30 31 31 31 31 30 29 28 28 28 27 26 25 26 26 28 29 29 29 30 32 31 31 31 32 31 34 36 35 36 36 34 35 37 38 37 35 32 29 30 30 29 28 30 32 30 27 24 23 22 21 19 18 18 21 24 24 24 26 26 25 23 20 20 20 20 20 19 18 16 14 14 15 15 15
28 28 29 29 29 28 27 27 28 29 30 31 31 30 29 30 29 29 29 29 29 29 30 31 31 31 30 30 31 33 32 32 32 34 35 35 36 35 35 37 37 38 37 36 38 40 38 34 32 30 31 30 30 30 31 31 30 27 26 24 23 21 19 18 20 23 26 27 29 30 31 29 27 23 22 22 21 20 20 18 16 14 14 15 16
26 26 27 27 29 28 28 27 29 28 28 29 29 29 29 30 30 30 29 30 31 33 33 32 32 31 31 31 32 33 33 34 34 35 35 36 37 36 37 37 39 41 40 39 40 38 38 36 35 34 32 31 30 31 32 31 31 30 29 27 25 25 24 22 21 24 27 28 28 28 31 35 34 32 26 22 21 20 20 20 18 16 15 15 16
25 25 25 25 26 27 27 27 27 28 28 28 28 28 28 29 30 31 32 33 35 34 nan nan nan nan 29 29 30 31 33 34 36 37 38 38 40 39 39 40 40 39 38 38 39 39 39 38 36 36 37 36 34 32 33 35 33 32 32 30 25 24 24 25 25 28 34 30 28 31 31 31 34 35 31 28 23 21 20 21 19 19 17 17 18
25 26 26 26 26 25 25 26 26 26 26 27 28 29 29 31 33 33 32 31 32 32 nan nan nan 29 29 28 28 29 28 26 27 31 33 34 37 37 38 39 39 39 38 39 38 39 38 37 36 37 36 35 34 33 33 34 32 30 32 32 29 27 31 33 33 34 32 28 26 27 27 30 33 35 36 35 32 28 25 22 24 20 20 20 19
24 25 25 26 26 25 25 25 25 26 27 29 26 22 22 29 33 34 33 32 32 33 32 nan nan nan nan 28 28 22 23 23 24 25 28 30 32 34 37 38 38 38 38 37 37 38 38 37 36 37 36 35 36 35 36 35 34 36 36 37 34 34 37 33 32 33 33 30 28 24 23 28 32 33 35 33 34 34 33 33 31 28 26 22 20
24 25 25 25 25 25 25 25 25 26 28 29 24 23 25 27 31 34 34 34 33 33 nan nan nan nan nan nan 31 28 28 29 31 28 30 32 32 31 31 32 35 37 37 35 35 37 37 36 36 36 36 35 35 36 36 36 36 36 37 40 39 39 40 37 33 36 35 33 31 25 22 25 28 29 31 31 33 37 38 34 31 26 24 25 22
24 24 24 24 24 24 25 26 27 27 28 27 27 nan nan 35 34 35 35 nan nan nan nan nan nan nan nan nan nan nan 33 32 33 34 32 30 30 31 31 33 33 33 34 35 35 35 36 35 35 35 35 35 36 37 37 37 37 36 40 42 42 40 38 36 37 35 38 40 35 30 25 27 27 25 26 28 31 34 34 33 32 30 25 24 25
24 24 24 24 24 24 25 27 28 29 30 28 nan nan nan nan nan nan nan nan nan nan nan nan nan nan nan nan nan nan nan 26 30 35 36 36 33 31 30 29 31 35 36 34 33 35 36 33 33 32 34 36 35 36 38 38 40 37 39 40 42 41 40 36 35 36 38 41 38 31 27 27 29 25 23 24 28 32 31 29 26 30 31 28 26
24 24 23 24 25 27 28 29 30 31 31 29 nan nan nan nan nan 37 nan 35 35 nan nan nan nan nan nan 33 33 34 35 35 35 35 36 37 39 39 39 40 40 36 34 34 35 33 34 36 34 32 35 36 34 36 37 39 38 38 40 37 38 38 40 39 39 39 41 42 38 36 31 28 28 26 22 22 27 28 29 28 27 26 27 29 30
25 25 25 26 28 29 30 31 31 nan nan nan nan nan nan nan nan 36 nan nan nan 35 34 35 nan nan 35 34 34 35 36 37 38 37 39 39 39 39 39 39 39 39 39 39 39 40 40 40 38 36 35 35 34 33 35 38 40 41 41 40 42 43 45 45 43 39 37 39 39 38 31 29 31 26 22 22 25 24 25 25 24 25 26 26 28
26 26 27 29 nan nan nan nan nan nan nan nan nan nan nan nan nan 39 39 38 nan nan nan nan 37 38 37 37 38 37 37 38 37 36 36 40 41 40 39 40 40 40 39 38 37 37 38 39 39 38 38 36 35 35 36 38 39 40 42 43 42 40 40 40 39 40 39 41 41 39 34 30 31 26 22 23 24 22 22 24 24 23 24 26 28
26 27 nan nan nan nan 33 35 nan nan nan nan nan nan nan nan nan 40 40 39 39 38 38 38 38 38 38 38 37 37 37 38 36 39 43 41 40 39 39 38 39 39 39 40 38 35 34 33 33 32 32 32 32 32 32 31 35 39 40 39 38 41 40 39 38 39 38 40 40 40 35 31 32 29 25 25 25 23 23 24 26 26 25 26 27
28 30 nan nan nan nan nan nan nan nan nan nan nan nan nan nan 44 42 41 41 40 39 39 39 39 39 37 32 33 38 39 39 46 53 50 47 44 42 41 39 39 39 40 41 42 42 39 38 38 36 34 33 33 33 33 33 32 39 40 36 39 43 40 40 38 39 39 39 39 41 39 34 34 33 30 29 28 26 25 26 26 27 26 25 26
nan nan nan nan nan nan nan 34 nan nan nan nan nan nan nan nan 45 43 42 42 42 42 41 40 41 40 40 39 35 38 49 nan nan nan nan nan nan nan 45 44 41 39 41 43 43 44 45 45 44 43 41 40 40 41 40 35 34 37 39 37 39 39 38 38 38 39 37 38 40 43 39 39 37 36 34 33 29 28 28 27 26 27 29 31 31
Wind_Direction
nan nan nan nan nan 303 321 323 320 314 320 335 332 325 328 349 334 338 346 359 3 31 12 17 24 23 5 359 15 357 23 15 359 5 9 353 354 7 8 7 10 16 24 36 45 52 62 70 78 100 69 54 54 46 38 37 40 43 47 49 52 53 53 54 56 56 58 57 59 61 62 63 65 69 73 77 80 82 82 83 85 87 87 85 85
nan nan nan nan nan nan nan 307 293 296 299 319 316 298 334 345 306 314 317 5 36 17 10 27 11 11 1 5 7 355 4 14 8 2 13 353 346 3 10 8 10 16 20 32 43 49 58 66 79 91 98 54 54 47 41 41 46 49 50 51 52 55 54 55 55 58 59 58 57 61 63 64 66 71 76 79 81 83 85 86 84 81 81 81 81
nan nan nan nan nan nan 304 267 278 277 303 307 295 304 324 333 319 323 317 7 5 13 27 34 4 351 358 5 358 356 348 356 9 2 3 0 340 347 10 10 12 17 19 26 36 41 48 61 69 80 87 73 50 49 44 44 48 52 54 54 54 56 57 56 54 56 58 59 59 59 60 63 69 73 75 78 80 82 82 82 81 78 75 75 76
335 nan nan nan nan nan 255 276 284 308 306 319 311 304 311 307 311 324 322 320 293 328 74 47 7 338 337 3 340 2 355 347 350 358 349 349 342 333 348 7 17 18 21 23 30 35 43 50 62 69 70 71 61 50 47 50 51 53 55 54 55 56 57 58 57 57 58 58 59 61 63 66 69 73 75 78 79 79 79 76 74 73 73 73 77
nan nan 278 290 260 262 277 284 306 310 319 315 311 301 311 308 316 310 303 299 317 327 346 28 356 327 351 355 331 357 359 334 342 335 341 342 343 319 330 343 3 21 25 26 29 35 41 48 56 61 62 61 58 53 51 53 56 57 56 55 55 56 57 58 58 58 58 58 59 60 61 63 66 69 73 76 78 79 76 72 68 66 67 70 75
280 280 292 284 278 277 283 285 293 310 306 287 273 283 295 307 307 302 303 302 304 290 300 314 254 227 92 323 291 289 8 328 337 337 330 338 321 319 320 318 329 347 23 31 32 38 42 46 52 57 56 58 55 51 52 57 60 59 58 56 54 55 56 58 59 59 56 55 56 58 58 60 63 66 71 74 75 76 74 71 66 62 62 65 67
285 285 288 294 289 285 286 290 286 261 265 274 266 265 283 296 299 296 290 291 299 315 338 310 303 321 109 263 294 304 65 269 306 327 335 324 325 312 313 310 316 319 336 353 39 38 40 44 49 53 52 54 54 52 50 53 60 60 58 59 56 54 54 56 58 58 56 55 55 58 58 59 60 63 67 73 75 76 75 70 65 59 59 59 61
287 289 294 295 293 290 291 288 288 289 285 271 265 281 285 294 305 295 294 300 298 312 312 302 303 312 354 326 246 288 299 258 223 333 321 310 294 305 303 298 305 308 310 305 276 48 39 41 47 53 54 52 50 48 49 51 57 60 60 58 59 60 60 58 57 58 57 55 55 58 59 58 59 58 60 67 73 74 71 68 63 58 56 57 60
293 293 299 307 303 299 292 280 282 300 279 272 265 278 282 283 293 297 294 291 293 292 293 292 296 297 277 222 277 287 296 310 305 259 292 307 295 286 300 290 286 306 293 287 277 252 41 41 45 50 54 57 55 51 49 50 54 57 58 59 59 59 60 62 64 62 57 56 56 58 59 59 59 61 63 64 67 69 67 63 60 57 56 60 62
294 292 291 299 297 305 317 319 328 298 272 267 262 259 265 266 283 293 289 286 284 285 281 290 296 301 311 308 276 213 238 266 252 234 234 275 297 296 269 263 284 288 278 280 275 259 244 36 41 49 52 55 57 58 57 55 54 53 55 56 56 56 55 56 57 60 62 54 48 52 58 61 62 61 63 63 65 68 67 65 64 60 59 64 66
300 298 310 333 352 350 341 343 334 301 287 274 261 248 247 252 262 282 292 293 288 285 285 286 294 304 309 319 317 337 224 227 243 245 261 242 272 299 271 261 244 253 273 266 260 256 260 246 233 211 172 55 60 61 63 61 59 55 53 52 50 53 53 52 52 54 55 56 55 51 50 56 61 63 63 64 64 68 70 69 67 66 65 67 65
351 30 352 53 35 29 25 11 7 2 333 283 229 224 236 261 278 268 284 295 290 284 286 290 284 291 297 295 298 305 313 313 279 267 255 228 225 243 271 261 251 244 245 259 261 256 255 259 251 241 227 198 46 56 58 62 65 64 56 53 51 50 51 51 52 51 49 49 50 51 49 49 56 61 64 67 67 69 72 71 70 70 69 66 61
80 52 33 43 44 48 33 35 42 44 48 63 167 200 233 254 251 276 278 291 295 292 289 288 288 289 289 283 275 286 304 316 301 270 259 260 241 215 222 252 248 258 239 238 242 236 237 249 256 247 240 234 237 38 44 50 56 58 59 58 56 55 55 52 52 52 51 47 47 46 45 46 46 53 59 61 68 71 71 71 71 71 66 60 55
72 57 59 50 48 41 42 39 43 55 59 57 71 75 47 25 229 274 305 296 291 308 286 291 295 292 289 282 291 295 304 298 314 315 307 276 264 236 228 235 248 253 262 253 249 243 229 231 245 252 248 243 240 242 240 240 41 45 45 55 59 57 58 59 60 58 56 51 48 47 46 46 47 49 52 56 63 69 72 72 70 68 60 53 49
70 67 56 61 55 56 61 47 57 63 66 67 69 69 65 65 54 50 343 326 312 292 295 308 297 282 275 269 264 270 281 283 288 297 292 277 277 286 256 245 281 274 261 256 262 259 254 249 240 253 259 254 248 249 252 255 262 348 22 33 45 51 56 59 63 65 64 60 56 53 52 50 52 53 54 57 61 68 72 72 67 61 54 49 44
76 72 72 70 58 56 66 63 58 70 74 67 71 79 66 58 64 57 45 49 21 296 331 333 318 305 294 292 282 272 257 271 284 281 290 289 291 285 283 282 263 250 242 239 257 268 270 272 280 259 259 271 267 261 262 262 285 320 348 9 25 37 47 54 60 60 60 63 61 58 55 55 55 57 58 59 62 65 66 63 59 55 50 45 38
83 78 73 69 72 59 61 64 66 66 68 69 66 72 85 70 55 50 46 54 57 357 8 4 343 336 313 296 291 288 293 283 291 289 291 292 301 291 289 288 279 275 273 259 257 271 264 258 266 272 274 268 270 272 268 276 274 275 295 344 2 19 32 40 51 58 60 61 63 60 59 59 60 61 60 58 55 53 51 48 45 44 42 39 36
86 83 74 67 60 56 49 55 62 55 59 72 82 82 74 48 50 46 40 38 46 36 22 8 4 354 359 356 311 296 292 279 268 255 267 287 272 293 302 299 287 284 272 267 258 261 268 266 260 260 262 277 278 268 261 269 279 282 279 285 344 360 17 29 37 47 56 61 63 61 61 62 63 63 60 54 47 40 34 30 30 29 28 29 26
85 77 76 71 64 67 75 56 55 57 61 62 66 69 64 36 42 39 45 34 26 29 31 28 8 12 13 12 8 2 342 313 310 285 272 275 281 288 287 283 280 282 283 287 277 262 265 269 269 261 256 258 263 269 269 273 289 290 306 311 326 346 5 20 27 38 46 53 59 62 63 62 60 55 50 42 35 29 23 20 19 18 19 19 16
76 60 57 57 58 60 51 64 64 69 63 64 64 63 57 32 22 32 22 24 23 24 29 27 3 20 27 30 18 7 11 359 330 326 303 289 288 282 277 284 282 285 290 289 289 284 282 280 280 277 270 269 269 267 265 261 259 265 279 291 308 331 352 7 16 27 36 42 46 51 52 49 45 40 34 30 25 19 15 14 13 12 13 16 17
63 51 41 41 31 41 50 47 50 51 39 49 52 58 63 28 13 10 14 24 21 18 20 16 14 10 3 18 30 4 5 2 350 347 341 326 316 305 295 288 286 286 287 286 280 280 279 279 280 283 279 278 272 270 269 265 262 261 264 302 326 333 337 344 355 5 14 20 24 29 30 27 22 17 14 13 12 12 11 11 8 3 9 8 15
32 73 60 32 23 19 21 31 36 36 30 31 24 20 23 15 13 8 12 18 12 4 9 3 356 360 2 2 350 3 359 358 350 350 1 357 348 322 309 304 297 288 290 290 295 293 286 276 274 275 275 274 274 273 273 269 265 259 257 274 293 307 326 333 334 341 347 352 358 1 7 7 4 1 2 1 1 2 2 1 2 357 358 359 2
149 26 29 24 11 359 354 334 318 18 14 8 20 352 347 358 1 350 357 5 4 354 358 357 353 349 352 354 3 357 353 351 353 356 360 5 359 351 327 322 314 296 294 294 291 291 289 287 282 279 275 273 273 274 273 272 271 269 273 265 284 291 306 322 320 325 329 333 337 341 350 351 352 353 355 354 351 351 348 349 352 352 351 352 355
140 86 26 26 289 279 307 338 342 322 315 317 324 331 338 343 337 339 344 343 344 343 345 341 348 345 349 341 348 349 334 347 345 1 1 1 356 345 330 314 313 313 299 299 297 293 292 290 286 283 281 277 277 277 275 274 273 286 277 276 273 292 300 312 319 313 319 324 327 328 337 345 344 346 346 347 345 344 343 344 340 346 349 349 350
11 32 nan 255 277 316 328 326 329 329 320 319 326 329 334 333 332 338 335 335 332 332 332 336 336 336 339 339 340 335 338 324 334 339 347 344 336 339 338 323 324 312 316 313 302 304 303 297 292 289 286 286 283 282 278 275 273 280 292 268 264 271 291 298 310 317 315 315 321 323 323 332 336 333 329 331 333 333 334 334 336 342 345 345 348
nan 272 271 266 nan nan 299 297 297 302 308 313 320 329 329 325 324 323 323 320 317 318 320 322 325 332 328 325 326 326 327 328 326 337 339 335 328 331 329 325 330 320 307 310 313 301 295 296 297 295 292 289 285 283 282 279 276 284 296 279 274 293 291 291 302 311 315 309 316 319 322 321 326 330 330 327 326 327 329 339 345 338 340 344 358
nan nan 288 314 316 295 282 296 304 306 316 322 322 317 310 313 317 316 313 316 318 318 319 319 316 319 321 322 322 322 321 323 323 325 327 322 321 317 308 310 310 309 305 305 297 312 298 297 304 301 299 291 286 283 282 280 283 294 293 280 270 269 280 285 293 305 314 315 309 319 318 317 325 327 328 328 328 328 337 342 349 4 354 11 38
nan nan nan nan 273 nan nan 284 279 283 290 295 301 305 310 316 320 322 322 317 316 312 310 313 315 315 313 311 311 312 311 312 311 309 309 308 303 304 307 309 307 303 299 301 303 298 307 300 295 302 300 297 293 287 285 285 280 288 289 274 268 263 269 279 284 292 301 308 310 308 315 317 320 325 327 325 326 326 327 331 330 348 8 30 51
nan nan nan nan nan 274 nan nan 273 278 282 286 290 298 300 301 nan 308 308 308 304 299 297 297 300 301 302 305 305 305 307 307 307 306 305 303 307 309 309 309 303 303 293 294 293 288 292 304 292 291 292 288 291 288 285 280 280 281 273 271 270 270 274 283 283 285 288 294 297 299 303 307 312 315 316 320 322 321 322 323 318 316 24 73 61
nan nan nan nan 270 265 nan nan nan 281 289 295 293 293 294 296 297 300 302 306 310 309 306 302 299 296 296 295 294 294 296 298 297 294 294 296 299 301 300 298 293 297 297 293 289 286 285 282 284 287 285 285 282 281 284 281 281 283 271 268 268 268 276 284 283 281 282 285 287 289 292 295 300 305 306 307 311 313 314 321 323 315 331 66 76
270 273 273 nan nan nan 280 286 285 285 279 275 275 280 283 289 290 294 298 299 295 293 293 294 296 295 294 294 294 294 292 292 291 290 294 297 298 298 299 299 301 304 302 298 291 289 286 284 288 293 293 296 292 288 285 283 286 289 276 268 266 267 263 269 281 281 279 281 284 285 285 287 291 294 297 300 303 307 318 316 314 304 297 328 10
nan nan nan nan 284 283 287 nan nan nan nan nan 281 284 288 291 293 293 294 294 295 295 294 295 294 293 292 292 293 293 292 291 292 295 299 302 302 300 298 296 295 297 295 293 295 288 283 279 275 284 294 290 292 292 291 284 279 285 277 271 267 266 260 260 273 280 276 278 281 283 284 282 284 288 293 296 299 303 309 309 306 296 299 320 331
nan 273 nan 282 292 292 282 nan 274 277 282 283 286 289 288 287 287 287 288 291 292 292 292 290 288 287 287 286 285 285 283 285 288 290 289 289 291 296 300 299 296 294 293 292 292 286 281 283 277 276 281 287 285 288 289 286 282 279 278 274 270 267 263 261 259 270 280 282 283 283 282 281 282 287 290 290 294 300 303 305 301 289 284 286 291
274 nan nan nan nan nan nan 273 277 281 286 289 284 281 281 283 283 285 288 290 290 288 289 289 287 287 287 287 287 285 285 286 nan nan nan nan nan nan 285 291 296 295 294 292 289 284 279 276 277 273 271 273 276 286 280 278 275 275 275 271 269 267 263 259 259 257 271 279 282 282 280 280 281 283 286 289 291 294 299 304 303 296 286 285 290
282 282 nan 269 270 271 274 280 284 289 285 281 282 283 283 283 284 284 285 283 286 287 287 287 285 283 282 282 281 280 280 279 278 276 275 nan nan nan nan nan nan 287 290 291 286 283 276 272 273 271 271 272 274 277 279 274 272 271 268 268 267 265 266 266 261 257 258 267 272 273 275 278 279 280 281 283 285 287 290 294 297 296 291 288 291
nan nan 274 274 276 278 281 287 286 282 281 283 284 285 285 286 286 286 287 286 284 283 280 278 278 280 279 275 272 275 277 276 275 275 276 274 271 270 268 270 271 nan 271 278 287 285 282 274 271 270 267 264 267 270 274 274 270 268 268 264 262 261 259 262 265 260 259 267 268 265 264 267 272 274 276 276 275 277 278 281 287 290 290 288 288
278 279 281 279 282 283 nan nan 280 282 284 287 289 289 290 289 289 288 288 287 285 283 282 281 278 277 276 276 274 271 269 269 270 273 272 270 271 270 270 270 270 269 272 273 274 279 278 279 275 271 267 265 263 267 272 272 270 269 269 270 268 265 263 260 257 258 259 261 264 261 257 256 258 263 266 265 266 267 269 272 276 282 287 288 286
278 278 282 285 283 285 287 288 289 290 291 292 291 292 292 292 293 292 292 290 287 284 282 279 278 277 277 276 275 274 272 271 271 269 267 266 266 268 268 267 267 267 266 265 268 272 278 278 277 273 270 268 265 264 266 270 271 269 265 265 266 267 264 262 261 258 258 259 257 255 252 248 247 250 252 254 257 260 264 267 270 275 281 283 283
286 288 288 293 298 298 298 294 288 287 288 288 292 295 297 295 294 292 289 288 286 281 279 277 274 274 274 275 275 275 273 272 270 269 268 268 268 265 265 265 264 263 262 263 263 262 263 266 269 272 270 269 268 265 264 262 263 265 264 260 257 260 262 262 258 256 254 252 254 255 251 252 253 252 253 253 253 257 261 263 265 269 273 278 278
292 293 293 290 289 290 290 293 294 292 292 291 290 291 293 294 293 291 289 285 282 281 nan nan nan nan 276 274 273 273 274 275 273 270 270 269 269 267 267 266 266 265 265 264 264 264 264 262 261 260 263 263 263 264 263 263 260 258 262 262 259 258 257 258 258 256 252 247 245 251 255 253 250 251 250 251 252 253 255 256 259 261 267 271 273
294 294 294 294 294 295 294 292 291 291 291 292 290 289 288 287 286 286 286 286 286 286 nan nan nan 281 279 279 278 277 275 274 277 280 279 278 273 272 272 271 269 269 268 267 266 267 266 265 263 263 262 262 261 258 259 262 263 260 259 263 261 259 254 250 249 252 257 256 251 247 248 254 254 252 251 250 249 254 253 259 253 260 263 263 270
294 294 294 294 295 294 293 292 293 293 291 289 289 290 293 289 290 292 292 291 289 288 287 nan nan nan nan 278 277 271 272 271 271 273 278 281 281 278 274 273 272 270 269 268 268 268 268 267 268 266 265 265 265 263 260 257 254 255 253 253 251 249 251 250 250 255 259 259 255 252 252 254 256 255 256 253 248 252 251 252 253 256 260 267 269
295 294 295 296 296 294 292 291 291 292 292 291 297 305 296 293 292 291 290 289 289 288 nan nan nan nan nan nan 274 270 268 268 269 267 270 275 277 278 279 278 277 276 272 271 270 269 268 268 266 267 267 265 265 265 264 261 259 256 257 256 253 253 252 251 249 251 258 262 259 255 252 254 253 254 258 257 254 251 250 250 256 259 258 262 267
296 294 293 291 290 291 294 295 296 297 297 299 299 nan nan 297 297 294 292 nan nan nan nan nan nan nan nan nan nan nan 271 269 269 269 267 263 264 266 269 275 278 278 278 275 271 268 267 265 265 265 264 264 264 265 265 263 260 256 257 259 260 259 255 253 253 253 256 257 259 256 252 253 255 252 253 256 256 252 249 248 250 258 261 262 262
293 294 292 292 294 296 298 299 299 296 294 291 nan nan nan nan nan nan nan nan nan nan nan nan nan nan nan nan nan nan nan 270 270 272 271 269 266 264 263 262 269 274 275 277 277 274 269 268 265 265 265 262 260 261 262 261 260 258 257 258 260 261 263 260 258 256 256 258 257 255 253 255 260 262 260 259 258 255 253 254 250 250 256 260 262
294 294 295 297 297 297 296 296 296 297 296 294 nan nan nan nan nan 303 nan 295 292 nan nan nan nan nan nan 282 281 280 279 278 276 273 271 269 267 266 265 265 266 265 264 270 275 278 276 271 268 264 263 261 260 259 259 259 259 260 261 259 258 257 260 261 259 257 258 261 262 255 252 255 259 258 260 259 259 257 258 261 266 261 258 260 262
296 295 295 296 298 298 297 297 297 nan nan nan nan nan nan nan nan 302 nan nan nan 290 289 287 nan nan 285 283 282 279 277 276 274 270 268 268 268 267 266 265 264 263 263 263 265 267 268 269 269 267 266 265 263 260 257 257 257 256 257 254 252 249 249 250 251 255 255 261 264 261 257 256 258 259 260 257 257 256 256 261 270 267 264 260 261
298 298 298 299 nan nan nan nan nan nan nan nan nan nan nan nan nan 298 297 296 nan nan nan nan 287 286 286 283 280 278 276 274 271 267 267 268 269 268 267 265 263 263 263 261 259 260 264 265 265 265 264 265 263 261 259 259 257 256 256 257 258 257 256 254 253 254 256 259 267 266 260 258 261 259 252 251 255 256 256 257 267 274 268 263 262
297 299 nan nan nan nan 302 298 nan nan nan nan nan nan nan nan nan 297 295 294 293 291 290 289 288 286 285 282 280 278 275 274 271 266 264 263 268 266 264 262 262 262 261 261 260 258 259 262 263 263 263 263 262 261 259 257 258 258 256 257 258 259 257 255 253 253 255 258 262 267 263 259 261 259 250 245 248 252 254 253 255 264 271 268 266
301 300 nan nan nan nan nan nan nan nan nan nan nan nan nan nan 303 299 297 296 295 294 292 291 290 288 287 284 280 279 277 275 268 268 265 265 267 266 266 263 261 261 261 261 260 260 257 256 258 260 259 257 255 253 251 250 251 257 259 258 258 258 257 257 254 254 254 258 261 263 260 259 257 257 251 245 242 249 251 252 254 255 263 265 267
nan nan nan nan nan nan nan 299 nan nan nan nan nan nan nan nan 304 299 299 297 296 295 291 290 288 286 284 282 279 276 277 nan nan nan nan nan nan nan 261 261 261 260 261 259 257 255 255 254 254 253 255 258 259 258 257 256 256 261 261 258 256 255 254 253 252 251 250 254 260 262 258 256 257 257 256 249 245 246 251 252 254 254 256 259 260